[[{"header":{"parameterUnit":"m.s-1","parameterCategory":1,"la1":30.2991,"la2":30.254,"lo1":-89.0895,"lo2":-89.0444,"dy":0.0017,"dx":0.0017,"nx":28,"ny":28,"refTime":"2024-06-27T03:00:00:Z","depth":0,"parameterNumber":2,"parameterNumberName":"U-component_of_WINDS"},"data":[0,0,0,0,0,0,0,0,0,0,0,0,0,0,0,0,0,0,0,0,0,0,0,0,0,0,0,0,0,0,0,0,0,0,0,0,0,0,0,0,0,0,0,0,0,0,0,0,0,0,0,0,0,0,0,0,0,0,4.6317,4.6318,0,4.6444,4.6445,4.6447,4.6396,4.6393,4.639,4.6387,4.6518,4.6524,4.653,0,0,0,0,0,0,0,0,0,0,0,0,0,4.6028,4.6034,4.6316,4.6318,4.632,4.6443,4.6445,4.6447,4.6396,4.6393,4.6389,4.6386,4.6516,4.6523,4.6531,0,0,0,0,0,0,0,0,0,0,0,0,0,4.6154,4.6036,4.6316,4.6309,4.631,4.6443,4.6445,4.6447,4.6397,4.6392,4.6388,4.6384,4.6513,4.6523,4.6532,4.668,0,0,4.6561,4.6565,0,0,0,0,0,0,0,0,4.6147,4.6165,4.6309,4.631,4.6311,4.6399,4.6392,4.6525,4.6398,4.6364,4.6387,4.6382,4.6482,4.6494,4.6528,4.6686,4.6692,4.6562,4.6567,4.6571,4.6574,0,0,0,0,0,0,0,4.6138,4.6159,4.6367,4.6311,4.6312,4.6299,4.6312,4.6417,4.6447,4.6367,4.6363,4.6379,4.6482,4.6519,4.653,4.6694,4.6561,4.657,4.6575,4.6579,4.6975,4.6979,0,0,0,0,0,0,4.6129,4.6152,4.6363,4.6371,4.6216,4.6308,4.6323,4.6375,4.6445,4.6452,4.6383,4.6376,4.6505,4.6519,4.6535,4.6709,4.6571,4.658,4.6585,4.697,4.6976,4.6981,0,0,0,0,0,0,4.6124,4.6149,4.6358,4.6261,4.6286,4.6318,4.6378,4.638,4.6417,4.6458,4.6463,4.6415,4.6502,4.6521,4.6643,4.6713,4.6584,4.6593,4.6964,4.6972,4.6979,4.706,0,0,0,0,0,0,4.6115,4.6147,4.6204,4.6262,4.6291,4.6464,4.6382,4.6386,4.6433,4.6426,4.6489,4.6495,4.65,4.6629,4.6652,4.6723,4.66,4.6958,4.6968,4.6976,4.7051,4.7069,4.7085,0,0,0,0,0,4.6105,4.6223,4.6207,4.6233,4.6363,4.6469,4.6485,4.6488,4.6439,4.6496,4.6521,4.6493,4.6702,4.6642,4.6668,4.6743,4.6954,4.6965,4.6975,4.7044,4.7066,4.7084,0,0,0,0,0,0,4.6173,4.6231,4.6214,4.6354,4.6407,4.646,4.6532,4.6512,4.658,4.657,4.6571,4.6586,4.671,4.6739,4.6672,4.6887,4.682,4.6837,4.6863,4.6885,4.6901,4.689,4.6608,0,0,0,0,0,4.6204,4.6285,4.6331,4.645,4.6477,4.65,4.6546,4.6544,4.6598,4.6621,4.6655,4.6709,4.6786,4.6838,4.6912,4.7056,4.7067,4.712,4.7137,4.715,4.7163,4.7238,4.726,4.7017,4.7017,4.7017,0,0,4.627,4.6311,4.6362,4.6465,4.6505,4.6587,4.6519,4.6611,4.6671,4.6635,4.675,4.6777,4.6838,4.697,4.703,4.6998,4.7233,4.7164,4.7174,4.7181,4.7251,4.7274,4.7295,4.7024,4.7023,4.7022,0,0,4.643,4.6471,4.6572,4.6614,4.6676,4.669,4.6714,4.677,4.6786,4.6902,4.6875,4.6948,4.7082,4.7125,4.7164,4.7338,4.7313,4.7362,4.7448,4.7521,4.754,4.7557,4.7615,4.7636,4.7376,4.7377,4.7377,0,4.6503,4.6626,4.6627,4.6719,4.6764,4.6734,4.6835,4.6876,4.6959,4.699,4.6953,4.7118,4.7157,4.7297,4.7339,4.7373,4.7399,4.7354,4.7537,4.7554,4.757,4.7625,4.7647,4.7382,4.7381,4.7381,4.738,0,4.6711,4.6797,4.6872,4.695,4.7004,4.7101,4.7115,4.7169,4.7161,4.7179,4.7295,4.7341,4.7421,4.7455,4.745,4.7594,4.7571,4.7536,4.7468,4.7598,4.765,4.7671,4.7389,4.7387,4.7386,4.7385,0,0,4.6917,4.6994,4.7021,4.7054,4.7119,4.7185,4.728,4.7358,4.7402,4.746,4.7537,4.765,4.7617,4.7662,4.7661,4.7725,4.7854,4.7682,4.7683,4.7709,4.8011,4.8034,4.8059,4.784,4.7844,4.7847,4.8004,0,4.7079,4.7243,4.7246,4.7397,4.7474,4.7446,4.7527,4.7575,4.7594,4.7662,4.7682,4.7761,4.7713,4.7739,4.7802,4.7826,4.7915,4.7815,4.7909,4.7912,4.789,4.8086,4.8112,4.8258,4.8025,4.8029,4.8031,0,4.729,4.7352,4.751,4.756,4.7593,4.7666,4.7735,4.7802,4.7855,4.7864,4.7912,4.7901,4.7995,4.7927,4.8055,4.7987,4.8026,4.8043,4.8049,4.8055,4.7977,4.8094,4.8306,4.8326,4.8064,4.8061,4.8059,0,4.7418,4.7543,4.7652,4.7683,4.7745,4.7797,4.7825,4.7874,4.7919,4.7981,4.8009,4.8082,4.812,4.8176,4.8183,4.8134,4.8311,4.8244,4.8319,4.8318,4.8355,4.8352,4.8572,4.8387,4.8386,4.8386,4.8385,0,4.7597,4.7693,4.771,4.7777,4.7883,4.7886,4.7991,4.8015,4.8058,4.8128,4.811,4.8176,4.8184,4.8252,4.8259,4.8362,4.8381,4.8389,4.8389,4.8388,4.8386,4.8411,4.84,4.8392,4.839,4.8389,4.8388,0,4.7758,4.7773,4.789,4.7939,4.7953,4.8029,4.8071,4.8134,4.815,4.8239,4.826,4.8285,4.8364,4.8378,4.8471,4.8476,4.8597,4.8589,4.8579,4.8576,4.8648,4.864,4.8889,4.892,4.8718,4.872,4.8722,0,4.7868,4.7942,4.7998,4.8043,4.8073,4.8147,4.8192,4.8197,4.8245,4.831,4.8364,4.8441,4.8502,4.8629,4.8655,4.8725,4.8716,4.8799,4.8726,4.8722,4.8712,4.8706,4.8712,4.8811,4.8813,4.8815,4.8817,0,4.8062,4.8065,4.8132,4.82,4.8254,4.8309,4.836,4.8398,4.8409,4.8464,4.8543,4.8591,4.8684,4.8759,4.8829,4.8857,4.8838,4.8839,4.8859,4.8858,4.8847,4.8849,4.8612,4.8833,4.8831,4.883,4.8829,4.8829,4.8199,4.8261,4.8309,4.8382,4.8421,4.8469,4.8529,4.8552,4.8618,4.8694,4.8693,4.8779,4.8828,4.8919,4.8952,4.9018,4.8992,4.9022,4.9029,4.9036,4.904,4.8839,4.9032,4.9031,4.9031,4.9031,4.903,0,4.8387,4.8416,4.8484,4.8555,4.8612,4.859,4.8645,4.8693,4.8769,4.8816,4.8876,4.8965,4.9037,4.9069,4.9139,4.9186,4.9179,4.9204,4.9199,4.9205,4.9062,4.9036,4.9209,4.9209,4.9209,4.9209,4.9209,4.9209,4.8492,4.8594,4.8603,4.8724,4.8752,4.8835,4.8868,4.8911,4.8948,4.9048,4.9108,4.9128,4.9168,4.924,4.9305,4.9312,4.9337,4.9366,4.9369,4.9234,4.9216,4.9198,4.9173,4.9372,4.9372,4.9505,4.9506,4.9507]},{"header":{"parameterUnit":"m.s-1","parameterCategory":1,"la1":30.2991,"la2":30.254,"lo1":-89.0895,"lo2":-89.0444,"dy":0.0017,"dx":0.0017,"nx":28,"ny":28,"refTime":"2024-06-27T03:00:00:Z","depth":0,"parameterNumber":3,"parameterNumberName":"V-component_of_WINDS"},"data":[0,0,0,0,0,0,0,0,0,0,0,0,0,0,0,0,0,0,0,0,0,0,0,0,0,0,0,0,0,0,0,0,0,0,0,0,0,0,0,0,0,0,0,0,0,0,0,0,0,0,0,0,0,0,0,0,0,0,2.6869,2.687,0,2.6991,2.6993,2.6994,2.6971,2.6969,2.6967,2.6965,2.7091,2.7097,2.7102,0,0,0,0,0,0,0,0,0,0,0,0,0,2.6615,2.662,2.6869,2.687,2.6872,2.6991,2.6993,2.6994,2.6972,2.6969,2.6966,2.6964,2.709,2.7096,2.7102,0,0,0,0,0,0,0,0,0,0,0,0,0,2.673,2.6622,2.6868,2.6875,2.6876,2.6991,2.6993,2.6995,2.6972,2.6969,2.6965,2.6962,2.7087,2.7095,2.7103,2.7219,0,0,2.7128,2.7132,0,0,0,0,0,0,0,0,2.6724,2.674,2.6872,2.6874,2.6877,2.6962,2.695,2.707,2.6973,2.6936,2.6965,2.6961,2.7051,2.7062,2.7092,2.7225,2.7231,2.7129,2.7134,2.7137,2.714,0,0,0,0,0,0,0,2.6716,2.6734,2.6917,2.6874,2.6877,2.6871,2.6884,2.6972,2.701,2.6939,2.6937,2.6952,2.7052,2.7085,2.7095,2.7232,2.7129,2.7136,2.7141,2.7144,2.7465,2.7469,0,0,0,0,0,0,2.6706,2.6728,2.6913,2.6921,2.6791,2.6879,2.6893,2.6938,2.7009,2.7017,2.6955,2.6951,2.7072,2.7086,2.7099,2.7239,2.7137,2.7145,2.7149,2.7462,2.7466,2.747,0,0,0,0,0,0,2.67,2.6723,2.6908,2.6824,2.6847,2.6887,2.6938,2.6942,2.6975,2.7022,2.7028,2.6981,2.707,2.7088,2.7189,2.7243,2.7148,2.7156,2.7457,2.7463,2.7468,2.752,0,0,0,0,0,0,2.6693,2.6721,2.6765,2.6825,2.6852,2.6996,2.6941,2.6947,2.6989,2.6985,2.7048,2.7056,2.7069,2.7177,2.7197,2.7253,2.7162,2.7453,2.746,2.7466,2.7513,2.7526,2.7537,0,0,0,0,0,2.6684,2.6775,2.6768,2.679,2.6908,2.6999,2.7014,2.7028,2.6993,2.7038,2.7068,2.7054,2.7234,2.7188,2.721,2.7269,2.7449,2.7458,2.7466,2.7508,2.7524,2.7537,0,0,0,0,0,0,2.6721,2.6783,2.6775,2.6888,2.6939,2.6995,2.7052,2.7044,2.7106,2.7099,2.7113,2.7128,2.723,2.726,2.7207,2.7384,2.7337,2.735,2.7361,2.7377,2.7388,2.7379,2.7169,0,0,0,0,0,2.6743,2.6811,2.6862,2.6957,2.6982,2.7013,2.7053,2.7059,2.7112,2.7133,2.717,2.7222,2.729,2.7335,2.7401,2.7517,2.7531,2.7569,2.7581,2.759,2.7601,2.7665,2.7682,2.7497,2.7497,2.7497,0,0,2.6787,2.683,2.6872,2.6965,2.7005,2.7075,2.7031,2.7108,2.7161,2.7145,2.7242,2.7271,2.733,2.744,2.749,2.7467,2.7655,2.7601,2.7608,2.7614,2.7675,2.7692,2.7708,2.7503,2.7502,2.7501,0,0,2.6905,2.6944,2.7027,2.7067,2.7127,2.7147,2.7167,2.7225,2.7243,2.7341,2.7331,2.7393,2.7511,2.7553,2.759,2.7722,2.7711,2.7743,2.7806,2.7868,2.7882,2.7895,2.7942,2.7958,2.7754,2.7755,2.7755,0,2.6953,2.7059,2.7071,2.7149,2.7189,2.7178,2.7262,2.73,2.7379,2.7408,2.7381,2.7528,2.7567,2.7685,2.7717,2.7748,2.7771,2.7736,2.7879,2.7892,2.7904,2.7949,2.7967,2.7758,2.7758,2.7757,2.7757,0,2.7115,2.7188,2.7248,2.7324,2.7371,2.7452,2.7476,2.7523,2.7524,2.7547,2.7646,2.7692,2.7766,2.7795,2.7798,2.7914,2.7898,2.7875,2.7828,2.7925,2.7967,2.7985,2.7763,2.7762,2.7761,2.776,0,0,2.726,2.734,2.7362,2.7395,2.7461,2.7518,2.7598,2.767,2.7709,2.7764,2.7831,2.793,2.7909,2.7951,2.7958,2.8012,2.8113,2.7982,2.7984,2.8005,2.8243,2.826,2.8279,2.8106,2.8109,2.8112,2.8238,0,2.7383,2.7523,2.7536,2.7662,2.773,2.7719,2.7788,2.7836,2.7859,2.792,2.7945,2.8015,2.7982,2.8007,2.806,2.8089,2.8161,2.8081,2.8168,2.8171,2.8153,2.8301,2.8319,2.8436,2.8255,2.8257,2.8259,0,2.7545,2.7604,2.7737,2.7791,2.782,2.7883,2.7949,2.8008,2.8061,2.8074,2.812,2.8119,2.8201,2.8151,2.8264,2.8209,2.8245,2.8265,2.827,2.8278,2.8221,2.8313,2.8474,2.8491,2.8286,2.8284,2.8282,0,2.7637,2.7749,2.7843,2.7872,2.7939,2.7982,2.8012,2.8062,2.8104,2.8163,2.819,2.8257,2.8294,2.8346,2.8363,2.8325,2.8475,2.8427,2.8488,2.8488,2.852,2.8518,2.8688,2.8544,2.8544,2.8544,2.8543,0,2.7773,2.7854,2.7884,2.7942,2.8033,2.8046,2.8136,2.8163,2.8208,2.827,2.8266,2.8325,2.8344,2.8407,2.8421,2.8512,2.8528,2.8541,2.8544,2.8541,2.854,2.8565,2.8557,2.8548,2.8547,2.8546,2.8546,0,2.789,2.7914,2.8015,2.807,2.8085,2.815,2.8196,2.8251,2.8273,2.8352,2.8372,2.8406,2.8479,2.8501,2.859,2.8599,2.8705,2.8701,2.8687,2.8687,2.8747,2.8741,2.894,2.8966,2.8805,2.8807,2.8808,0,2.7975,2.8038,2.8099,2.814,2.8171,2.8238,2.8281,2.8297,2.8341,2.8406,2.8454,2.8526,2.8584,2.8701,2.8734,2.8801,2.8798,2.8863,2.8808,2.8803,2.8798,2.8794,2.88,2.8873,2.8875,2.8876,2.8877,0,2.8124,2.8132,2.8194,2.826,2.8311,2.8363,2.8414,2.8448,2.8471,2.8522,2.8596,2.8641,2.873,2.8802,2.887,2.89,2.8893,2.8894,2.8912,2.891,2.8899,2.8905,2.8714,2.889,2.8888,2.8888,2.8887,2.8886,2.8227,2.8282,2.8333,2.8402,2.8441,2.8489,2.8543,2.8571,2.8633,2.8707,2.8712,2.8792,2.8843,2.8934,2.8968,2.9031,2.9012,2.9038,2.9044,2.905,2.9055,2.8889,2.9043,2.9043,2.9043,2.9042,2.9042,0,2.8375,2.8407,2.847,2.8541,2.8595,2.8582,2.8638,2.8684,2.8754,2.8802,2.8859,2.8944,2.9013,2.9051,2.912,2.9163,2.9161,2.918,2.9177,2.9184,2.9068,2.9045,2.918,2.918,2.918,2.918,2.918,2.918,2.8458,2.8549,2.8563,2.8674,2.8706,2.8784,2.8816,2.886,2.8898,2.8993,2.905,2.9074,2.9118,2.919,2.9252,2.9262,2.9287,2.9308,2.9315,2.9206,2.9192,2.9179,2.9158,2.9314,2.9314,2.9426,2.9427,2.9428]}]]